Hourly Data Report for September 04, 2017

All times are specified in Local Standard Time (LST). Add 1 hour to adjust for Daylight Saving Time where and when it is observed.

BAKER LAKE A
NUNAVUT

64°17'56.000" N
96°04'40.000" W
18.60 m
2300503
71926
YBK

Download Data

Hourly Data (September 2017)
Hourly Data Report for September 4, 2017
Temp Definition
°C
Dew Point Temp Definition
°C
Rel Hum Definition
%
Wind Dir Definition
10's deg

Wind Spd Definition
km/h
Visibility Definition
km
Stn Press Definition
kPa
Hmdx Definition


Wind Chill Definition


Weather Definition


TIME
00:00 Legend Double Dagger 4.4 2.3 86 34 21 24.1 100.94     Clear
01:00 Legend Double Dagger 4.1 2.4 89 34 22 32.2 100.99     LegendNANA
02:00 Legend Double Dagger 3.7 2.1 90 35 22 24.1 101.03     LegendNANA
03:00 Legend Double Dagger 2.8 1.5 91 34 20 24.1 101.09     Clear
04:00 Legend Double Dagger 2.2 1.2 94 33 20 24.1 101.16     LegendNANA
05:00 Legend Double Dagger 2.6 1.5 93 34 17 32.2 101.22     LegendNANA
06:00 Legend Double Dagger 2.6 1.8 94 32 18 32.2 101.27     Clear
07:00 Legend Double Dagger 4.2 2.6 90 35 23 32.2 101.32     LegendNANA
08:00 Legend Double Dagger 5.7 3.1 83 35 25 32.2 101.37     LegendNANA
09:00 Legend Double Dagger 6.5 2.8 77 35 32 32.2 101.38     Mainly Clear
10:00 Legend Double Dagger 6.9 2.5 73 35 24 32.2 101.42     LegendNANA
11:00 Legend Double Dagger 8.4 1.4 61 34 23 32.2 101.44     LegendNANA
12:00 Legend Double Dagger 9.9 0.7 53 35 23 32.2 101.47     Clear
13:00 Legend Double Dagger 10.9 1.2 51 35 22 32.2 101.49     LegendNANA
14:00 Legend Double Dagger 12.2 1.4 47 33 22 32.2 101.50     LegendNANA
15:00 Legend Double Dagger 12.0 0.8 46 1 22 32.2 101.53     Clear
16:00 Legend Double Dagger 12.0 0.9 46 36 22 32.2 101.55     LegendNANA
17:00 Legend Double Dagger 11.7 1.4 49 36 20 32.2 101.56     LegendNANA
18:00 Legend Double Dagger 10.5 1.9 55 35 13 32.2 101.57     Mainly Clear
19:00 Legend Double Dagger 7.6 1.7 66 31 16 32.2 101.58     LegendNANA
20:00 Legend Double Dagger 5.8 1.1 72 31 22 32.2 101.58     LegendNANA
21:00 Legend Double Dagger 6.1 1.6 73 30 21 24.1 101.58     Mostly Cloudy
22:00 Legend Double Dagger 5.5 2.0 78 31 17 24.1 101.59     LegendNANA
23:00 Legend Double Dagger 4.3 1.3 81 32 21 24.1 101.56     LegendNANA

Notes on Data Quality.

Legend

  • E = Estimated
  • M = Missing
  • NA = Not Available
  • ‡ = Partner data that is not subject to review by the National Climate Archives
Date modified: